EW7930 Weather Reports


time (UTC)temp
C
wind
direction
speed
KPH
gust
KPH
rain 1hr
cm
rain 24hr
cm
rain mn
cm
humidity
%
barometer
mb
20260508014511 17 234 8.0 16.1 0.00 0.00 0.00 10 1008.5
20260508013012 18 231 11.3 19.3 0.00 0.00 0.00 10 1008.5
20260508011509 19 236 11.3 22.5 0.00 0.00 0.00 9 1008.4
20260508010019 20 243 8.0 17.7 0.00 0.00 0.00 10 1008.6
20260508004517 20 225 9.7 20.9 0.00 0.00 0.00 10 1008.5
20260508003008 20 255 4.8 22.5 0.00 0.00 0.00 9 1008.5
20260508001605 21 269 12.9 22.5 0.00 0.00 0.00 9 1008.6
20260508000004 21 283 8.0 19.3 0.00 0.00 0.00 10 1008.6
20260507234503 21 250 6.4 16.1 0.00 0.00 0.00 10 1008.7
20260507233002 21 264 6.4 22.5 0.00 0.00 0.00 11 1009.1
20260507231600 21 234 12.9 25.7 0.00 0.00 0.00 12 1009.2
20260507230059 21 295 8.0 22.5 0.00 0.00 0.00 12 1009.4
20260507224559 21 271 12.9 29.0 0.00 0.00 0.00 13 1009.4
20260507223056 21 277 11.3 33.8 0.00 0.00 0.00 14 1009.6
20260507221554 21 311 14.5 22.5 0.00 0.00 0.00 16 1009.7
20260507220052 21 283 12.9 19.3 0.00 0.00 0.00 16 1010.0
20260507214551 21 293 9.7 25.7 0.00 0.00 0.00 16 1010.1
20260507213049 21 269 14.5 29.0 0.00 0.00 0.00 16 1010.4
20260507211552 21 286 11.3 27.4 0.00 0.00 0.00 17 1010.8
20260507210044 21 321 12.9 29.0 0.00 0.00 0.00 16 1011.1
20260507204541 22 223 8.0 20.9 0.00 0.00 0.00 16 1011.4
20260507203040 21 284 9.7 32.2 0.00 0.00 0.00 14 1011.8
20260507201542 21 314 11.3 24.1 0.00 0.00 0.00 10 1012.0
20260507200035 21 233 14.5 25.7 0.00 0.00 0.00 10 1012.2
20260507194535 21 295 11.3 24.1 0.00 0.00 0.00 11 1012.4
20260507193035 21 310 9.7 29.0 0.00 0.00 0.00 12 1012.5
20260507191529 20 264 12.9 27.4 0.00 0.00 0.00 11 1012.8
20260507190028 20 322 14.5 27.4 0.00 0.00 0.00 12 1012.8
20260507184525 20 309 12.9 29.0 0.00 0.00 0.00 13 1013.0
20260507183039 19 323 16.1 27.4 0.00 0.00 0.00 14 1013.1
20260507181519 18 318 14.5 33.8 0.00 0.00 0.00 17 1013.4
20260507180018 18 324 14.5 29.0 0.00 0.00 0.00 18 1013.7
20260507174515 17 327 19.3 33.8 0.00 0.00 0.00 18 1013.9
20260507173009 16 336 16.1 29.0 0.00 0.00 0.00 23 1014.1
20260507171505 15 308 16.1 29.0 0.00 0.00 0.00 27 1014.3
20260507170100 15 334 12.9 30.6 0.00 0.00 0.00 31 1014.6
20260507170000 15 293 11.3 30.6 0.00 0.00 0.00 32 1014.5
20260507164557 13 337 19.3 32.2 0.00 0.00 0.00 33 1014.6
20260507163053 12 274 12.9 24.1 0.00 0.00 0.00 36 1014.8
20260507161550 12 327 14.5 25.7 0.00 0.00 0.00 38 1015.2
20260507160052 11 342 11.3 22.5 0.00 0.00 0.00 41 1015.2
20260507154542 11 337 12.9 25.7 0.00 0.00 0.00 42 1015.4
20260507153043 11 352 12.9 24.1 0.00 0.00 0.00 43 1015.4
20260507151534 10 327 9.7 17.7 0.00 0.00 0.00 45 1015.5
20260507150030 10 322 8.0 16.1 0.00 0.00 0.00 49 1015.8
20260507144532 8 314 6.4 14.5 0.00 0.00 0.00 55 1016.0
20260507143021 8 339 8.0 16.1 0.00 0.00 0.00 59 1016.0
20260507141520 7 311 6.4 11.3 0.00 0.00 0.00 63 1016.2
20260507140012 6 317 3.2 9.7 0.00 0.00 0.00 68 1016.4
20260507134508 5 341 6.4 12.9 0.00 0.00 0.00 73 1016.3
20260507133004 4 350 4.8 11.3 0.00 0.00 0.00 78 1016.3
20260507131501 2 338 4.8 8.0 0.00 0.00 0.00 83 1016.5
20260507130108 2 21 4.8 9.7 0.00 0.00 0.00 86 1016.5
20260507124631 1 338 1.6 4.8 0.00 0.00 0.00 90 1016.4
20260507123050 0 53 3.2 4.8 0.00 0.00 0.00 91 1016.4
20260507121550 -1 65 1.6 4.8 0.00 0.00 0.00 91 1016.4
20260507120048 -1 58 3.2 6.4 0.00 0.00 0.00 91 1016.5
20260507114605 -1 46 1.6 6.4 0.00 0.00 0.00 90 1016.4
20260507113044 -1 95 3.2 8.0 0.00 0.00 0.00 91 1016.3
20260507111543 -1 101 3.2 6.4 0.00 0.00 0.00 91 1016.3
20260507110045 0 94 4.8 8.0 0.00 0.00 0.00 91 1016.4
20260507104547 0 95 3.2 4.8 0.00 0.00 0.00 91 1016.4
20260507103036 0 108 3.2 6.4 0.00 0.00 0.00 90 1016.5
20260507101534 0 107 3.2 8.0 0.00 0.00 0.00 90 1016.5
20260507100036 0 126 3.2 8.0 0.00 0.00 0.00 89 1016.2
20260507094531 0 117 4.8 8.0 0.00 0.00 0.00 88 1016.3
20260507093036 0 141 4.8 8.0 0.00 0.00 0.00 87 1016.2
20260507091537 0 117 3.2 9.7 0.00 0.00 0.00 86 1016.2
20260507090024 0 150 3.2 6.4 0.00 0.00 0.00 85 1016.3
20260507084525 0 110 3.2 6.4 0.00 0.00 0.00 84 1016.2
20260507083018 1 178 3.2 6.4 0.00 0.00 0.00 81 1016.2
20260507081519 1 157 1.6 4.8 0.00 0.00 0.00 78 1016.0
20260507080013 2 51 4.8 8.0 0.00 0.00 0.00 80 1015.9
20260507074510 2 98 3.2 9.7 0.00 0.00 0.00 79 1015.6
20260507073007 2 119 4.8 11.3 0.00 0.00 0.00 78 1015.7
20260507071507 2 74 6.4 11.3 0.00 0.00 0.00 78 1015.4
20260507070002 2 86 4.8 9.7 0.00 0.00 0.00 77 1015.3
20260507064610 2 101 4.8 9.7 0.00 0.00 0.00 74 1015.2
20260507063059 3 117 4.8 11.3 0.00 0.00 0.00 72 1015.0
20260507061552 3 94 4.8 14.5 0.00 0.00 0.00 68 1014.8
20260507060048 3 84 4.8 12.9 0.00 0.00 0.00 62 1014.6
20260507054548 3 94 8.0 14.5 0.00 0.00 0.00 60 1014.3
20260507053044 3 82 6.4 11.3 0.00 0.00 0.00 59 1014.0
20260507051543 3 117 3.2 6.4 0.00 0.00 0.00 57 1013.9
20260507050041 5 76 1.6 4.8 0.00 0.00 0.00 57 1013.8
20260507044543 4 74 3.2 6.4 0.00 0.03 0.00 56 1013.6
20260507043040 5 117 0.0 3.2 0.00 0.03 0.00 55 1013.4
20260507041538 6 89 1.6 4.8 0.00 0.03 0.00 51 1013.4
20260507040035 7 39 1.6 6.4 0.00 0.03 0.00 48 1012.9
20260507034538 7 238 3.2 8.0 0.00 0.05 0.00 47 1012.7
20260507033033 7 46 0.0 3.2 0.00 0.05 0.00 49 1012.5
20260507031530 7 269 1.6 4.8 0.00 0.05 0.00 47 1012.1
20260507030028 8 290 3.2 6.4 0.00 0.05 0.00 47 1011.9
20260507024527 8 303 1.6 8.0 0.00 0.08 0.00 44 1011.7
20260507023025 10 295 4.8 11.3 0.00 0.08 0.00 40 1011.3
20260507021523 11 316 8.0 20.9 0.00 0.08 0.00 38 1011.0
20260507020030 11 276 11.3 24.1 0.00 0.08 0.00 37 1010.8